Location: D�rnast
(49.6426°N, 11.9755°E)
Time: 03:18:12
(UTC+00:00)

ATLAS 2AS CENTAUR R/B - Pass Details

Date: 24 January 2021
Orbit: 947 x 1265 km, 63.7° (Epoch: 13 February)

Event Time Altitude Azimuth Distance (km) Brightness Sun altitude
Rises 17:02:19 0° 263° (W) 4,221 7.8 -10.9°
Reaches altitude 10° 17:05:26 10° 271° (W) 3,251 6.5 -11.4°
Maximum altitude 17:12:38 36° 337° (NNW) 1,853 4.0 -12.5°
Enters shadow 17:19:28 10° 42° (NE) 3,108 4.6 -13.6°
